FW5955 Weather Reports


time (UTC)temp
C
wind
direction
speed
KPH
gust
KPH
rain 1hr
cm
rain 24hr
cm
rain mn
cm
humidity
%
barometer
mb
20260831030024 18 264 12.9 24.1 0.00 0.03 0.00 91 1011.0
20260831024511 18 264 8.0 16.1 0.00 0.03 0.03 92 1011.2
20260831023009 18 252 11.3 20.9 0.00 0.03 0.03 91 1011.4
20260831021507 18 236 11.3 20.9 0.00 0.03 0.03 91 1011.7
20260831020006 18 242 9.7 17.7 0.03 0.03 0.03 91 1012.0
20260831014505 18 284 12.9 20.9 0.03 0.03 0.03 91 1012.1
20260831013003 18 262 9.7 19.3 0.03 0.03 0.03 91 1012.4
20260831011502 18 251 6.4 17.7 0.03 0.03 0.03 91 1012.4
20260831010104 18 250 9.7 19.3 0.00 0.00 0.00 91 1012.4
20260831004502 18 250 6.4 14.5 0.00 0.00 0.00 90 1012.5
20260831003100 18 265 4.8 17.7 0.00 0.00 0.00 89 1012.5
20260831001559 18 278 4.8 12.9 0.00 0.00 0.00 89 1012.5
20260831000103 18 243 9.7 19.3 0.00 0.00 0.00 89 1012.6
20260830234606 18 283 8.0 19.3 0.00 0.00 0.00 89 1012.5
20260830233103 18 255 9.7 22.5 0.00 0.00 0.00 89 1012.7
20260830231555 19 245 12.9 27.4 0.00 0.00 0.00 90 1012.8
20260830230054 19 269 16.1 29.0 0.00 0.00 0.00 89 1013.0
20260830224554 20 270 12.9 27.4 0.00 0.00 0.00 87 1013.0
20260830223053 20 253 11.3 27.4 0.00 0.00 0.00 87 1012.8
20260830221555 20 247 9.7 20.9 0.00 0.00 0.00 86 1012.8
20260830214552 20 245 11.3 24.1 0.00 0.00 0.00 85 1012.9
20260830213052 20 229 11.3 24.1 0.00 0.00 0.00 85 1012.9
20260830211553 20 257 8.0 25.7 0.00 0.00 0.00 86 1012.7
20260830210050 20 226 8.0 17.7 0.00 0.00 0.00 86 1012.9
20260830204557 21 264 11.3 25.7 0.00 0.00 0.00 85 1012.9
20260830203049 21 264 11.3 22.5 0.00 0.00 0.00 85 1013.0
20260830201557 20 259 11.3 24.1 0.00 0.00 0.00 85 1013.0
20260830200048 20 224 16.1 27.4 0.00 0.00 0.00 85 1013.3
20260830194549 21 229 14.5 30.6 0.00 0.00 0.00 85 1013.4
20260830193043 22 233 16.1 32.2 0.00 0.00 0.00 82 1013.4
20260830191615 21 238 12.9 35.4 0.00 0.00 0.00 83 1013.3
20260830190054 22 240 16.1 32.2 0.00 0.00 0.00 82 1013.6
20260830184540 22 261 14.5 30.6 0.00 0.00 0.00 81 1013.7
20260830183038 22 237 19.3 29.0 0.00 0.00 0.00 81 1013.8
20260830181537 22 275 16.1 25.7 0.00 0.00 0.00 79 1014.0
20260830180039 22 206 17.7 29.0 0.00 0.00 0.00 79 1014.2
20260830174536 22 250 16.1 32.2 0.00 0.00 0.00 79 1014.4
20260830173036 22 274 17.7 32.2 0.00 0.00 0.00 74 1014.5
20260830171532 22 232 14.5 27.4 0.00 0.00 0.00 75 1014.6
20260830170030 22 283 11.3 25.7 0.00 0.00 0.00 74 1014.7
20260830164528 22 337 14.5 29.0 0.00 0.00 0.00 73 1014.9
20260830163036 22 222 14.5 22.5 0.00 0.00 0.00 75 1015.1
20260830161523 22 240 11.3 19.3 0.00 0.00 0.00 77 1015.3
20260830160030 22 255 11.3 20.9 0.00 0.00 0.00 73 1015.3
20260830154523 21 247 11.3 22.5 0.00 0.00 0.00 76 1015.8
20260830153016 21 219 11.3 22.5 0.00 0.00 0.00 77 1016.2
20260830151514 21 305 11.3 19.3 0.00 0.00 0.00 78 1016.3
20260830150019 21 266 8.0 19.3 0.00 0.00 0.00 78 1016.6
20260830144519 20 250 9.7 17.7 0.00 0.00 0.00 77 1016.9
20260830143006 20 270 8.0 17.7 0.00 0.00 0.00 77 1017.1
20260830141505 20 250 6.4 16.1 0.00 0.00 0.00 78 1017.0
20260830140001 20 251 9.7 19.3 0.00 0.00 0.00 79 1017.1
20260830134559 20 290 8.0 22.5 0.00 0.00 0.00 81 1017.3
20260830133105 19 246 9.7 19.3 0.00 0.00 0.00 79 1017.4
20260830131558 19 268 8.0 19.3 0.00 0.00 0.00 79 1017.4
20260830130106 20 256 6.4 14.5 0.00 0.00 0.00 80 1017.4
20260830124554 19 266 4.8 17.7 0.00 0.00 0.00 81 1017.5
20260830123054 19 219 6.4 14.5 0.00 0.00 0.00 80 1017.6
20260830121549 18 266 4.8 12.9 0.00 0.00 0.00 82 1017.7
20260830120101 17 291 6.4 12.9 0.00 0.00 0.00 83 1017.9
20260830114541 17 262 4.8 12.9 0.00 0.00 0.00 86 1018.1
20260830113039 16 250 4.8 12.9 0.00 0.00 0.00 87 1018.1
20260830111541 16 273 3.2 8.0 0.00 0.00 0.00 87 1018.2
20260830110039 16 260 6.4 12.9 0.00 0.00 0.00 85 1018.2
20260830104535 16 253 1.6 8.0 0.00 0.00 0.00 87 1018.4
20260830103032 15 313 1.6 4.8 0.00 0.00 0.00 88 1018.3
20260830101529 14 278 1.6 6.4 0.00 0.00 0.00 88 1018.4
20260830100031 13 321 0.0 4.8 0.00 0.00 0.00 88 1018.4
20260830094536 13 327 0.0 4.8 0.00 0.00 0.00 87 1018.4
20260830093033 13 215 0.0 8.0 0.00 0.00 0.00 87 1018.3
20260830091527 13 262 1.6 8.0 0.00 0.00 0.00 89 1018.3
20260830090025 13 262 1.6 6.4 0.00 0.00 0.00 89 1018.3
20260830084523 13 261 1.6 6.4 0.00 0.00 0.00 88 1018.3
20260830083028 13 276 3.2 8.0 0.00 0.00 0.00 87 1018.2
20260830081532 13 252 0.0 6.4 0.00 0.00 0.00 88 1018.3
20260830080019 13 247 3.2 8.0 0.00 0.00 0.00 87 1018.2
20260830074524 13 265 1.6 8.0 0.00 0.08 0.00 87 1018.1
20260830073017 13 256 3.2 6.4 0.00 0.08 0.00 88 1018.1
20260830071516 13 307 1.6 6.4 0.00 0.08 0.00 88 1018.2
20260830070016 13 274 1.6 4.8 0.00 0.08 0.00 88 1018.0
20260830064514 13 255 1.6 6.4 0.00 0.23 0.00 88 1018.2
20260830063012 13 280 1.6 6.4 0.00 0.23 0.00 87 1018.3
20260830061514 13 271 3.2 6.4 0.00 0.23 0.00 86 1018.2
20260830060022 13 281 1.6 6.4 0.00 0.23 0.00 86 1018.3
20260830054507 14 286 1.6 6.4 0.00 0.23 0.00 86 1018.5
20260830053005 14 266 1.6 4.8 0.00 0.23 0.00 87 1018.6
20260830051504 14 247 1.6 6.4 0.00 0.23 0.00 86 1018.8
20260830050004 14 315 0.0 3.2 0.00 0.23 0.00 86 1018.8
20260830044502 13 263 1.6 4.8 0.00 0.25 0.00 86 1018.9
20260830043102 13 274 1.6 4.8 0.00 0.25 0.00 86 1019.0
20260830041606 13 266 0.0 3.2 0.00 0.25 0.00 87 1018.9
20260830040057 13 274 0.0 1.6 0.00 0.25 0.00 87 1018.9
20260830034559 12 271 0.0 0.0 0.00 0.28 0.00 87 1018.9
20260830033053 13 264 0.0 1.6 0.00 0.28 0.00 87 1019.0
20260830031550 13 264 0.0 1.6 0.00 0.28 0.00 87 1018.7